Lapse_Rate
3.8 3.6 3.4 3.1 3.1 2.8 3.0 3.2 3.3 3.3 3.4 3.2 3.1 3.1 3.0 2.9 2.6 1.6 1.9 5.1 7.5 7.7 7.6 5.7 6.0 6.2 6.9 6.8 6.5 6.3 6.5 6.5 6.5 6.5 6.5 4.8 6.4 5.7 4.7 4.7 3.2 2.5 4.0 2.9 5.0
4.0 3.8 3.6 3.4 3.1 3.0 2.9 2.9 3.1 3.5 3.8 3.6 3.7 3.7 3.8 4.3 3.4 2.4 5.2 8.5 8.5 8.0 6.5 6.3 5.5 5.2 5.7 6.0 6.4 6.4 6.5 6.5 6.5 6.5 6.5 5.8 6.2 5.4 6.1 5.7 5.7 5.7 3.7 4.5 5.2
3.6 3.3 3.1 3.3 3.1 3.0 2.8 2.8 3.2 3.7 3.8 3.7 4.2 4.3 4.9 5.3 4.0 6.5 7.9 8.2 8.4 8.5 7.6 7.4 7.4 7.0 6.1 6.3 6.1 6.0 6.5 6.5 6.4 5.8 5.8 6.3 6.3 5.1 6.3 6.5 4.7 6.3 6.4 5.6 4.9
3.5 3.3 3.0 2.9 3.1 2.9 2.8 2.7 3.1 3.7 3.9 4.1 4.5 5.1 5.6 6.0 6.5 6.9 8.3 8.5 8.5 8.2 7.5 7.5 6.9 6.0 6.5 6.5 6.5 6.5 6.4 6.5 6.4 6.1 6.5 6.5 6.4 6.2 6.0 5.8 3.1 3.0 4.4 6.3 5.9
3.7 3.5 3.1 2.8 2.7 2.7 2.5 2.8 3.3 4.0 3.8 4.4 5.1 5.9 6.1 6.8 5.5 7.3 8.9 9.1 8.4 7.9 7.6 7.1 6.3 6.3 6.5 6.4 6.5 6.5 6.5 6.6 6.4 6.4 6.2 6.4 6.0 6.3 6.2 4.6 2.8 4.2 6.1 6.7 5.9
3.7 3.6 3.4 3.0 2.8 2.8 2.8 3.1 3.5 4.0 4.0 5.3 5.6 6.6 6.6 6.4 6.6 8.3 8.3 7.4 7.8 7.8 7.2 7.1 6.3 6.5 6.5 6.5 6.5 6.4 6.3 6.3 6.2 6.1 6.4 6.3 6.2 6.1 6.0 3.1 3.6 5.2 6.2 7.5 5.9
3.9 3.7 3.9 3.3 2.9 3.0 3.0 3.5 3.7 4.2 4.8 6.0 6.5 7.6 6.7 4.3 7.0 7.9 7.6 7.8 7.7 7.6 7.1 7.2 6.8 6.7 6.1 6.5 6.5 6.3 6.5 6.5 6.4 6.2 6.4 5.2 6.5 6.5 5.6 4.4 5.8 5.0 6.0 7.4 6.0
4.1 3.8 4.2 3.8 3.3 3.4 3.4 3.5 3.8 3.7 5.5 6.9 7.5 7.2 5.3 7.0 7.5 7.7 7.4 6.8 7.8 7.9 8.4 8.2 7.2 6.5 6.4 6.2 6.5 6.5 6.5 6.5 6.5 6.5 6.0 5.9 6.5 6.5 4.8 5.6 6.0 5.4 6.2 7.1 5.6
4.1 3.8 3.9 3.8 3.8 3.7 3.9 3.3 4.4 5.4 6.0 6.7 6.5 6.0 5.8 8.1 7.9 6.9 6.3 6.9 7.1 7.2 7.3 8.7 7.1 6.5 6.1 6.5 6.5 6.5 6.5 6.5 6.5 6.5 6.5 6.5 6.5 6.5 4.7 5.1 6.0 6.2 6.3 6.5 5.5
3.9 3.6 3.6 3.8 3.9 4.4 4.2 4.3 5.6 5.3 5.0 8.0 8.3 6.2 6.4 5.3 6.8 7.2 6.7 7.6 6.9 6.7 6.5 6.6 6.2 6.5 6.5 6.5 6.5 6.5 6.5 6.5 6.5 6.5 6.5 6.5 6.5 6.5 4.8 5.5 5.6 5.7 6.0 6.1 5.5
4.1 4.0 3.6 3.8 4.1 5.1 4.2 3.1 4.0 4.1 3.4 5.4 5.2 6.8 5.3 6.2 6.6 6.7 7.5 6.6 6.2 6.4 6.5 6.5 6.5 6.5 6.5 6.5 6.5 6.5 6.5 6.5 6.5 6.5 6.5 6.5 6.5 6.5 5.9 5.5 5.9 5.9 5.6 4.5 5.3
4.3 3.9 3.9 3.6 3.9 5.7 4.9 5.4 6.9 7.0 6.6 4.3 4.3 5.8 4.9 5.5 6.7 7.0 7.2 6.5 6.4 6.5 6.5 6.5 6.5 6.5 6.5 6.5 6.5 6.5 6.5 6.5 6.5 6.5 6.5 6.5 6.5 6.5 6.5 6.1 5.6 5.8 5.4 5.2 5.7
4.4 4.0 3.8 3.6 3.9 4.2 4.9 5.7 6.9 8.1 6.4 5.0 6.2 7.2 6.7 7.0 6.7 6.2 6.7 6.3 6.5 6.5 6.5 6.5 6.5 6.5 6.5 6.5 6.5 6.5 6.5 6.5 6.5 6.5 6.5 6.5 6.5 6.5 6.5 5.7 4.8 5.5 6.0 4.6 5.2
4.3 4.1 4.4 3.8 4.1 3.7 5.0 5.9 7.1 8.1 6.5 6.5 6.4 6.8 6.6 6.7 6.3 6.4 6.9 6.9 6.6 6.5 6.5 6.5 6.5 6.5 6.5 6.5 6.5 6.5 6.5 6.5 6.5 6.5 6.5 6.5 6.5 6.5 6.5 6.5 6.5 6.5 5.3 4.1 3.5
4.4 4.3 4.6 5.0 3.6 4.9 5.6 6.0 7.1 6.4 6.5 6.5 6.5 7.6 7.0 6.3 6.3 6.3 5.6 6.9 6.5 6.5 6.5 6.5 6.5 6.5 6.5 6.5 6.5 6.5 6.5 6.5 6.5 6.5 6.5 6.5 6.5 6.5 6.5 6.5 6.5 6.3 5.8 3.3 0.9
4.3 4.5 4.6 3.4 2.8 5.1 4.9 4.9 5.5 6.5 6.5 6.5 6.5 6.5 6.5 6.4 6.3 6.3 6.6 6.2 7.3 6.5 6.5 6.5 6.5 6.5 6.5 6.5 6.5 6.5 6.5 6.5 6.5 6.5 6.5 6.5 6.5 6.5 6.5 6.5 6.5 6.4 5.8 4.3 1.8
4.1 4.1 4.4 4.9 3.9 4.8 3.3 3.5 6.5 6.5 6.5 6.5 6.5 6.5 6.5 6.5 6.5 6.5 6.5 6.5 6.5 6.5 6.5 6.5 6.5 6.5 6.6 6.5 6.5 6.5 6.5 6.5 6.5 6.5 6.5 6.5 6.5 6.5 6.5 6.5 6.5 6.5 6.4 4.7 3.1
3.9 4.0 5.1 6.0 5.2 3.9 2.4 6.0 6.5 6.5 6.5 6.5 6.5 6.5 6.5 6.5 6.5 6.5 6.5 6.5 6.5 6.5 6.5 6.5 6.5 6.5 6.5 6.5 6.5 6.5 6.5 6.5 6.5 6.5 6.5 6.5 6.5 6.5 6.5 6.4 5.3 5.5 5.4 5.0 4.1
3.5 2.2 3.8 4.5 4.5 2.8 1.8 6.5 6.5 6.5 6.5 6.5 6.5 6.5 6.5 6.5 6.5 6.5 6.5 6.5 6.5 6.5 6.5 6.5 6.5 6.5 6.5 6.5 6.5 6.5 6.5 6.5 6.5 6.5 6.5 6.5 6.5 6.5 6.5 6.5 6.4 5.2 3.8 4.7 5.2
1.2 2.4 3.9 5.1 4.0 2.2 5.2 6.5 6.5 6.4 6.5 6.5 6.5 6.5 6.5 6.5 6.5 6.5 6.5 6.5 6.5 6.5 6.5 6.5 6.5 6.5 6.5 6.4 6.5 6.5 6.5 6.5 6.5 6.5 6.5 6.5 6.5 6.5 6.5 6.5 6.5 6.4 2.6 2.6 4.0
2.0 3.5 4.2 4.2 2.6 2.0 6.5 6.5 6.5 6.7 6.3 6.5 6.5 6.5 6.5 6.5 6.5 6.5 6.5 6.5 6.5 6.5 6.0 6.5 6.5 6.5 6.5 6.5 6.5 6.5 6.5 6.5 6.5 6.5 6.5 6.5 6.5 6.5 6.5 6.5 6.5 5.9 0.9 0.7 1.2
2.9 5.1 3.8 2.9 3.8 1.9 6.5 6.5 6.8 6.5 6.5 6.4 6.5 6.5 6.5 6.5 6.5 6.5 6.5 6.5 5.7 6.2 6.5 6.5 6.5 6.5 6.5 6.5 6.5 6.5 6.5 6.5 6.5 6.5 6.5 6.5 6.5 6.5 6.5 6.3 4.6 6.5 0.9 -0.7 1.6
4.4 4.3 4.0 2.5 6.5 6.5 6.0 6.5 6.5 6.5 6.5 6.5 6.5 6.5 6.5 6.5 6.5 6.5 6.5 6.0 5.8 6.4 6.5 6.5 6.5 6.5 6.5 6.5 6.5 6.5 6.5 6.5 6.5 6.5 6.5 6.5 6.5 6.5 6.3 6.2 4.0 3.2 0.5 -1.0 -0.3
4.1 6.5 3.4 2.4 2.7 5.9 6.5 6.5 6.5 6.4 6.6 6.6 6.5 6.5 6.5 6.5 6.5 6.5 6.5 6.5 6.7 6.5 7.2 6.1 6.5 6.5 6.5 6.5 6.5 6.5 6.5 6.5 6.5 6.5 6.5 6.5 6.5 6.5 6.5 6.5 5.0 2.3 -0.4 -1.3 -1.1
4.7 5.0 5.0 6.5 5.5 5.4 5.2 6.5 6.5 6.5 6.3 6.3 6.5 6.5 6.5 6.5 6.5 6.5 6.5 6.5 6.6 6.8 5.9 6.5 6.5 6.5 6.5 6.5 6.5 6.5 6.5 6.5 6.5 6.5 6.5 6.5 6.5 6.5 6.5 6.5 4.8 2.6 0.6 -0.1 -0.1
5.3 5.0 4.9 3.8 6.1 5.8 6.3 6.5 6.5 6.5 6.4 6.5 6.5 6.5 6.5 6.5 6.5 6.5 6.5 6.5 6.5 6.3 6.5 6.4 6.5 6.5 6.5 6.5 6.5 6.5 6.5 6.5 6.5 6.5 6.5 6.5 6.5 6.5 5.7 4.7 3.9 2.0 1.7 1.3 0.6
4.7 5.3 4.5 5.3 5.1 6.6 6.5 6.5 6.5 5.4 5.8 5.1 6.1 6.5 6.5 6.5 6.7 6.8 6.8 6.8 6.5 6.5 6.5 6.5 6.5 6.5 6.5 6.5 6.5 6.5 6.5 6.5 6.5 6.5 6.5 6.5 6.5 6.5 6.5 6.4 5.0 2.0 -0.1 -0.0 3.1
Wind_Speed
22 22 23 23 23 24 25 26 26 26 24 25 24 25 25 27 28 11 5 8 2 6 6 5 5 6 9 5 4 5 3 11 14 9 3 11 5 4 2 6 6 6 5 10 17
23 24 25 25 26 27 27 27 26 26 25 25 25 24 25 23 13 13 9 10 5 6 5 4 7 9 5 4 7 9 9 11 3 8 5 11 2 6 3 5 5 11 14 21 18
23 24 25 27 28 28 28 29 28 27 26 26 25 24 22 19 5 2 3 7 4 6 2 4 6 6 10 11 9 12 21 16 11 9 5 4 3 4 2 3 7 14 16 17 17
23 24 25 27 29 29 30 30 29 27 26 26 25 21 15 5 4 2 2 1 8 10 6 6 5 5 4 9 15 14 23 20 13 12 3 7 2 3 4 4 9 20 24 17 16
25 27 27 28 30 31 32 32 30 27 26 24 19 13 5 0 7 9 1 3 3 5 6 5 8 6 13 6 11 22 26 15 13 19 19 9 6 5 0 2 16 18 20 18 14
25 26 28 29 31 33 33 34 32 28 24 21 14 9 2 4 7 12 6 6 5 4 6 5 6 8 11 14 16 15 16 17 13 14 16 8 6 3 2 13 19 19 15 18 15
24 26 28 28 31 33 34 33 34 28 24 19 11 4 4 10 6 17 7 5 5 5 6 7 6 4 5 8 9 14 18 15 17 15 12 8 7 6 3 13 16 16 14 14 10
25 26 28 29 31 33 33 34 33 32 26 13 10 3 5 7 9 6 6 7 5 7 8 9 6 5 4 5 9 9 10 15 12 11 9 9 7 4 7 12 12 14 15 16 12
24 26 29 30 31 32 31 36 35 22 8 14 1 3 7 4 4 8 5 6 7 7 7 10 2 8 5 7 7 5 8 9 4 14 9 7 3 8 7 11 12 12 13 15 11
25 26 29 31 31 30 29 35 21 7 14 4 2 1 3 8 7 14 7 5 6 7 5 4 4 4 2 4 8 7 6 5 11 11 9 8 6 6 8 11 12 13 14 13 12
26 28 30 32 31 26 20 4 6 6 7 3 9 4 9 7 8 7 7 5 5 4 4 5 1 8 12 9 10 10 7 8 15 15 7 10 9 10 6 7 13 13 12 11 12
26 28 30 34 30 23 7 5 4 4 8 7 15 9 12 7 11 9 2 4 2 10 10 2 6 13 11 8 9 10 9 8 9 6 7 9 12 10 6 6 10 16 13 17 12
26 28 31 32 27 5 7 6 3 1 2 8 4 3 7 7 10 8 6 6 5 7 8 5 6 4 9 8 8 9 12 5 5 9 4 5 2 4 5 7 8 5 9 10 16
26 27 28 28 6 6 3 6 5 2 3 10 7 4 11 13 5 5 5 2 4 7 7 4 10 7 4 4 8 4 4 7 1 5 5 2 6 4 5 6 7 11 9 9 9
26 27 27 13 3 3 5 10 4 1 5 19 5 5 13 6 9 7 3 3 5 8 3 5 5 3 2 5 7 4 4 7 4 1 3 5 4 5 7 5 8 9 10 8 7
25 27 22 4 2 3 10 7 2 4 2 7 7 12 13 6 8 9 4 2 3 6 4 8 5 1 4 3 1 9 5 5 2 1 3 6 5 2 5 6 7 6 10 10 9
26 28 13 5 4 18 9 3 5 6 6 10 9 13 14 11 7 11 8 13 10 8 6 5 5 7 7 7 9 6 1 3 2 1 2 3 4 3 3 4 2 15 14 9 8
29 26 3 3 16 9 3 5 9 2 4 5 6 16 5 13 6 11 8 9 5 11 4 6 6 10 11 6 3 4 2 4 2 2 3 3 2 3 3 5 7 11 13 11 8
21 4 2 7 13 2 5 6 4 4 4 7 11 5 6 7 6 8 6 9 6 12 6 4 5 6 4 3 3 5 4 2 5 1 3 1 2 3 5 8 9 8 7 10 10
3 3 3 21 10 4 5 3 2 4 4 3 5 5 5 7 8 8 7 5 12 13 8 4 3 3 6 5 3 3 2 3 3 3 1 1 3 1 1 3 5 5 4 3 8
2 3 3 20 5 5 3 1 2 5 4 2 2 3 4 3 1 4 5 5 10 11 5 4 2 4 5 5 4 5 3 3 3 2 1 2 1 4 4 3 5 6 4 4 4
1 2 4 4 4 2 1 2 4 4 4 2 2 3 3 8 4 3 4 4 8 6 8 3 3 2 1 2 1 2 2 3 4 5 1 3 2 5 1 0 7 8 4 2 5
1 2 3 5 3 3 5 2 3 4 3 3 3 3 3 3 4 3 5 7 11 7 9 6 3 3 5 3 2 3 4 3 3 3 0 4 3 3 5 6 4 6 3 3 4
2 2 4 4 2 4 2 3 4 4 1 4 3 4 5 4 3 5 7 6 13 8 15 3 2 2 1 4 3 4 6 5 2 3 1 1 2 4 4 4 4 3 2 4 3
2 1 3 1 3 3 3 2 3 4 3 4 4 5 5 3 5 3 5 7 5 11 8 4 2 2 5 3 2 3 1 5 4 1 4 4 4 2 2 4 4 5 3 4 2
2 3 2 2 1 3 2 3 1 4 2 3 1 6 7 3 3 8 8 3 2 7 7 7 2 4 3 2 5 3 6 5 5 5 6 7 5 3 4 5 4 3 4 3 2
1 1 4 2 2 3 3 4 3 2 4 5 3 5 3 3 7 11 8 7 6 4 4 3 3 4 2 3 4 4 4 3 2 4 3 3 1 3 4 5 3 2 3 3 3
Wind_Direction
9 6 3 1 359 356 351 349 347 345 340 337 335 333 331 327 321 311 264 236 16 347 352 340 346 298 250 264 189 141 228 234 223 193 245 292 350 337 222 93 51 356 141 147 137
6 4 360 357 355 351 349 345 342 339 337 334 331 329 328 326 315 287 248 245 14 353 18 339 294 295 254 217 210 195 219 240 199 204 204 264 53 306 149 120 54 74 92 126 127
3 2 359 354 351 348 344 340 337 335 333 330 329 326 326 327 321 235 66 80 40 1 269 265 257 255 260 234 235 210 234 230 269 254 265 249 305 341 156 150 174 145 139 144 136
0 356 356 352 347 343 339 335 332 332 330 327 324 320 317 323 346 200 181 309 327 321 313 315 309 279 254 245 229 246 242 238 259 279 300 299 235 320 260 178 133 151 152 151 146
360 355 352 349 344 339 336 331 328 329 328 327 327 327 336 310 249 261 58 339 312 308 306 289 282 288 272 265 253 234 243 243 233 249 266 240 265 249 154 78 138 144 153 153 146
358 353 347 346 341 336 333 327 323 326 325 326 326 327 267 269 247 354 354 332 277 282 300 285 260 269 272 263 250 256 257 241 228 229 247 221 228 194 171 116 122 140 152 160 149
355 351 343 343 339 335 330 324 321 321 318 317 324 305 263 256 269 307 325 281 275 254 255 267 258 227 321 313 285 259 256 251 241 228 246 193 222 177 172 134 135 136 149 161 144
352 350 342 341 339 333 328 322 318 313 310 298 307 332 260 259 290 350 313 308 316 321 265 250 258 267 203 288 305 286 237 235 248 230 235 164 232 237 190 141 145 145 153 163 143
349 348 340 340 338 334 328 318 316 318 354 302 103 171 274 341 338 302 307 285 284 277 272 281 340 277 268 246 281 255 248 204 278 215 235 161 197 228 188 160 155 153 156 156 134
348 346 340 338 338 335 333 318 334 35 346 11 75 165 284 310 295 306 290 294 288 300 303 246 227 235 255 197 237 243 208 199 188 239 195 168 179 184 189 176 160 154 155 144 137
345 343 339 337 338 337 339 10 15 1 26 279 284 254 270 269 302 286 297 345 357 283 280 300 191 234 230 214 237 279 281 256 202 214 160 186 188 209 167 182 147 150 146 132 132
343 341 340 335 337 338 26 58 104 245 317 287 252 252 262 247 302 298 63 348 303 285 302 250 234 235 248 218 223 229 283 290 303 254 165 192 205 194 182 164 166 155 154 149 141
342 342 339 334 331 28 77 52 35 119 282 297 268 272 291 328 312 333 23 324 278 291 291 247 256 289 215 241 207 216 226 244 252 322 77 124 67 175 214 114 84 115 139 156 154
341 340 342 336 50 329 65 357 357 110 48 349 355 337 359 325 337 30 4 336 325 313 315 306 316 302 250 264 182 198 231 205 183 219 192 75 203 241 172 116 109 143 137 129 124
340 338 340 351 272 358 292 341 315 32 53 316 349 332 323 340 295 353 322 20 331 312 298 286 310 312 294 230 175 235 286 163 150 78 158 167 107 258 131 152 151 151 135 105 69
337 333 335 6 342 245 340 333 42 43 307 326 330 335 343 327 335 335 337 62 259 305 272 253 278 92 261 301 68 138 85 50 78 267 146 204 120 270 195 185 130 148 135 126 101
333 329 322 306 299 318 338 61 35 78 359 333 332 330 322 348 340 354 350 16 26 339 358 347 351 332 25 44 82 67 31 50 44 103 202 308 80 216 45 334 185 153 148 122 104
331 323 303 240 327 328 46 54 66 326 305 299 307 311 15 6 341 343 356 13 18 1 297 351 345 352 342 30 4 172 155 129 100 99 31 34 164 286 40 19 68 98 128 132 116
333 330 359 298 338 30 65 51 192 221 278 320 323 356 339 353 344 6 359 27 359 356 340 327 345 322 14 334 8 317 37 178 101 28 67 179 47 78 75 58 64 79 99 134 143
329 344 304 328 340 58 66 116 74 355 335 359 7 7 330 335 352 4 351 13 354 351 339 315 290 3 308 336 330 105 300 51 12 93 113 293 95 220 343 134 95 79 87 90 135
39 27 271 336 49 51 105 235 326 324 44 48 302 299 317 348 274 304 290 298 358 335 347 315 353 332 358 14 336 348 9 29 108 90 70 142 35 208 210 200 172 143 150 153 138
43 22 304 21 48 62 83 210 274 308 358 34 250 273 332 323 283 310 347 221 343 354 343 313 316 8 259 298 201 235 302 101 107 313 28 136 260 345 88 80 137 158 159 114 125
16 274 325 71 85 342 321 357 316 1 329 10 312 28 331 282 309 292 352 313 1 4 345 340 346 343 335 338 338 28 331 92 91 111 281 109 276 47 62 66 60 136 132 116 112
58 17 346 44 140 120 48 331 321 1 337 339 293 354 343 326 326 304 340 331 331 6 359 353 66 163 341 270 242 332 350 356 92 78 185 224 127 14 62 105 105 89 125 128 130
48 219 178 295 332 120 119 198 320 355 356 352 4 17 349 299 305 349 348 313 335 6 357 59 350 39 292 319 334 340 321 355 70 146 127 195 107 56 106 155 160 153 136 118 141
154 136 28 155 112 91 226 253 294 295 138 302 123 317 309 264 311 320 326 348 298 347 3 342 304 355 308 4 9 51 16 2 36 27 65 100 80 101 95 109 92 152 152 157 190
174 62 110 211 167 101 212 212 230 77 295 202 234 288 294 280 299 282 267 257 263 309 328 30 0 9 292 21 30 9 309 339 37 19 350 92 92 122 88 99 126 154 172 161 172